Flag for U.S.A. Weather past 2 weeks in Grand Rapids, Michigan, U.S.A.

Now
18 °F

Mostly cloudy.


Feels Like: 10 °F
Forecast: 15 / 25 °F
Wind: 6 mph from Northeast

Location: Kent County International Airport

Current Time: Jan 27, 2015 at 6:22:03 AM

Latest Report: Jan 27, 2015 at 5:53 AM


Visibility: 10 mi

Pressure: 30.08 "Hg

Humidity: 74%

Dew point: 11 °F

Location of Grand RapidsLocation

Historic Weather in Grand Rapids — Graph

°F

Grand Rapids temperature yesterday

Maximum temperature yesterday: 23 °F (at 2:53 PM)
Minimum temperature yesterday: 8 °F (at 6:53 AM)
Average temperature yesterday: 16 °F

Past Weeks' High & Low Weather Summary

 TemperatureHumidityPressure
High43 °F (Jan 17, 3:53 PM)100% (Jan 18, 6:53 AM)30.80 "Hg (Jan 18, 6:53 AM)
Low-11 °F (Jan 14, 4:53 AM)44% (Jan 26, 3:53 PM)29.59 "Hg (Jan 24, 2:53 PM)
Average24 °F77%30.08 "Hg
* Reported Jan 12 4:53 AM — Jan 27 4:53 AM, Grand Rapids, Weather by CustomWeather, © 2014

Note: Actual official high and low records may vary slightly from our data, if they occured in-between our weather recording intervals... More about our weather records

Advertising

Grand Rapids weather history for previous 24 hours

 ConditionsComfort  
Time TempWeatherWind HumidityBarometerVisibility
4:53 AM
Jan 27
18 °FOvercast.8 mph74%30.06 "Hg10 mi
3:53 AM18 °FPassing clouds.8 mph77%30.03 "Hg10 mi
2:53 AM18 °FPassing clouds.6 mph77%30.03 "Hg10 mi
1:53 AM18 °FPassing clouds.7 mph74%30.01 "Hg10 mi
12:53 AM18 °FMostly cloudy.7 mph74%30.01 "Hg10 mi
11:53 PM
Jan 26
19 °FMostly cloudy.9 mph71%30.01 "Hg10 mi
10:53 PM19 °FOvercast.7 mph68%30.00 "Hg10 mi
9:53 PM19 °FMostly cloudy.7 mph62%30.00 "Hg10 mi
8:53 PM20 °FOvercast.7 mph57%29.99 "Hg10 mi
7:53 PM20 °FMostly cloudy.7 mph60%30.00 "Hg10 mi
6:53 PM21 °FMostly cloudy.5 mph60%29.98 "Hg10 mi
5:53 PM21 °FPartly cloudy.8 mph57%29.95 "Hg10 mi
4:53 PM23 °FBroken clouds.5 mph46%29.95 "Hg10 mi
3:53 PM23 °FBroken clouds.3 mph44%29.95 "Hg10 mi
2:53 PM23 °FPartly sunny.3 mph50%29.94 "Hg10 mi
1:53 PM22 °FPartly sunny.3 mph57%29.95 "Hg10 mi
12:53 PM20 °FOvercast.8 mph62%29.96 "Hg10 mi
11:53 AM18 °FOvercast.7 mph71%29.99 "Hg10 mi
10:53 AM16 °FPartly sunny.9 mph74%30.01 "Hg10 mi
9:53 AM12 °FPartly sunny.8 mph84%30.00 "Hg10 mi
8:53 AM9 °FPartly sunny.6 mph84%30.01 "Hg10 mi
7:53 AM8 °FPassing clouds.3 mph83%30.02 "Hg10 mi
6:53 AM8 °FClear.3 mph87%30.01 "Hg10 mi
Weather by CustomWeather, © 2014

See weather overviewHow to use our weather pages